This demonstration page uses our WeatherBlox Daily Observations layout. Learn more.

Left ArrowRight Arrow

39.29038, -76.61219

Hourly Observations for April 14, 2022

Temp ( °F °C ) Dew Point ( °F °C ) Humidity (%) Winds ( mph kmh ) Pressure ( in mb ) Visibility ( mi km ) Precip ( " mm )
12:54 am 00:54 Mostly Cloudy 78 25.6 53 11.7 42 42 SW 12 19 29.77 1008 10 16 0.00 0.00
1:54 am 01:54 Cloudy 78 25.6 54 12.2 43 43 SW 17 28 29.76 1008 10 16 0.00 0.00
2:54 am 02:54 Partly Cloudy 77 25 53 11.7 43 43 WSW 15 24 29.76 1008 10 16 0.00 0.00
3:54 am 03:54 Mostly Clear 76 24.4 53 11.7 45 45 SW 15 24 29.75 1008 10 16 0.00 0.00
4:54 am 04:54 Mostly Clear 74 23.3 54 12.2 50 50 SW 10 17 29.76 1008 10 16 0.00 0.00
5:54 am 05:54 Mostly Clear 73 22.8 55 12.8 53 53 SSW 8 13 29.77 1008 10 16 0.00 0.00
6:54 am 06:54 Mostly Sunny 72 22.2 55 12.8 55 55 SSW 8 13 29.78 1008 10 16 0.00 0.00
7:54 am 07:54 Mostly Sunny 73 22.8 56 13.3 55 55 SW 14 22 29.78 1008 10 16 0.00 0.00
8:54 am 08:54 Mostly Sunny 75 23.9 57 13.9 54 54 SW 13 20 29.77 1008 10 16 0.00 0.00
9:54 am 09:54 Partly Cloudy 77 25 58 14.4 52 52 WSW 15 24 29.78 1009 10 16 0.00 0.00
10:54 am 10:54 Partly Cloudy 79 26.1 57 13.9 47 47 SSW 12 19 29.78 1008 10 16 0.00 0.00
11:54 am 11:54 Partly Cloudy 82 27.8 57 13.9 42 42 VRB 6 9 29.77 1008 10 16 0.00 0.00
12:54 pm 12:54 Mostly Cloudy 82 27.8 56 13.3 41 41 SW 14 22 29.76 1008 10 16 0.00 0.00
1:54 pm 13:54 Mostly Cloudy 83 28.3 55 12.8 38 38 SSW 12 19 29.75 1007 10 16 0.00 0.00
2:54 pm 14:54 Mostly Cloudy 83 28.3 54 12.2 37 37 WSW 18 30 29.73 1007 10 16 0.00 0.00
3:54 pm 15:54 Cloudy 81 27.2 54 12.2 39 39 SW 16 26 29.73 1007 10 16 0.00 0.00
4:14 pm 16:14 Cloudy with Light Rain 66 18.9 55 12.8 68 68 WNW 21 33 29.79 1009 10 16 0.00 0.00
4:54 pm 16:54 Mostly Cloudy 67 19.4 50 10 55 55 NW 16 26 29.82 1010 10 16 0.00 0.00
5:54 pm 17:54 Mostly Cloudy 69 20.6 44 6.7 41 41 WNW 15 24 29.82 1010 10 16 0.00 0.00
6:54 pm 18:54 Mostly Cloudy 68 20 42 5.6 39 39 NW 12 19 29.87 1011 10 16 0.00 0.00
7:54 pm 19:54 Mostly Cloudy 65 18.3 31 -0.6 28 28 NW 18 30 29.90 1013 10 16 0.00 0.00
8:54 pm 20:54 Mostly Cloudy 63 17.2 30 -1.1 29 29 NW 8 13 29.94 1014 10 16 0.00 0.00
9:54 pm 21:54 Mostly Cloudy 63 17.2 30 -1.1 29 29 NW 6 9 29.98 1015 10 16 0.00 0.00
10:54 pm 22:54 Mostly Cloudy 62 16.7 28 -2.2 28 28 NNW 7 11 29.99 1016 10 16 0.00 0.00
11:54 pm 23:54 Mostly Cloudy 61 16.1 29 -1.7 30 30 VRB 6 9 30.01 1016 10 16 0.00 0.00

Powered by AerisWeather